Regional Weather Roundup
Issued by NWS

Home | Current Version | Previous Version | Text Only | Print | Product List | Glossary On
Versions: 1 2 3 4 5 6 7 8 9 10 11 12 13 14 15 16 17 18 19 20 21 22 23 24 25 26 27 28 29 30 31 32 33 34 35 36 37 38 39 40 41 42 43 44 45 46 47 48 49 50
000
ASUS43 KLSX 310707
RWRMO

WEATHER SUMMARY FOR MISSOURI
NATIONAL WEATHER SERVICE SPRINGFIELD MO
200 AM CDT FRI OCT 31 2014

NOTE: "FAIR" INDICATES FEW OR NO CLOUDS BELOW 12,000 FEET WITH NO
       SIGNIFICANT WEATHER AND/OR OBSTRUCTIONS TO VISIBILITY.
       CURRENT SKY AND/OR WEATHER CONDITIONS ARE NOT AVAILABLE FOR
       CHILLICOTHE AND FARMINGTON.

MOZ001>031-035>038-043-044-053-054-310800-
...NORTHERN AND WESTERN MISSOURI...

CITY           SKY/WX    TMP DP  RH WIND       PRES   REMARKS
KANSAS CTY INT CLOUDY    50  41  71 N20G28    30.26R
KANSAS C DTWN  PTCLDY    52  40  63 N13       30.25R
LEE`S SUMMIT   CLEAR     50  39  66 N17G28    30.24R
ST JOSEPH      CLOUDY    48  38  68 N20G33    30.30R
CHILLICOTHE      N/A     51  40  65 N9        30.23R
KIRKSVILLE     CLOUDY    49  38  65 N17G29    30.19R

$$
MOZ066>068-077>081-088>096-101>105-310800-
...SOUTHWEST MISSOURI...

CITY           SKY/WX    TMP DP  RH WIND       PRES   REMARKS
SPRINGFIELD    CLEAR     51  41  68 NW14      30.13R
JOPLIN         CLEAR     50  41  71 N10       30.19R

$$
MOZ032>034-039>042-045>050-055>058-069>072-310800-
...CENTRAL MISSOURI...

CITY           SKY/WX    TMP DP  RH WIND       PRES   REMARKS
COLUMBIA       CLOUDY    46  43  89 NW9       30.12R
JEFFERSON CITY MOCLDY    43  42  97 W6        30.12R
ROLLA          CLEAR     45  43  93 NW6       30.07R
SEDALIA        MOCLDY    50  40  68 NW15      30.16R
WHITEMAN AFB   FAIR      49  38  66 N17G23    30.17R
OSAGE BEACH    CLEAR     48  41  76 NW3       30.12R

$$
MOZ051-052-059>065-310800-
...EAST CENTRAL MISSOURI...

CITY           SKY/WX    TMP DP  RH WIND       PRES   REMARKS
ST LOUIS INTL  MOCLDY    48  44  86 N6        30.07R
SPIRIT OF STL  PTCLDY    45  43  93 CALM      30.07R
ST CHARLES     MOCLDY    47  44  90 N8        30.07R

$$
MOZ072>076-082>087-097>100-106>115-310800-
...SOUTH CENTRAL AND SOUTHEAST MISSOURI...

CITY           SKY/WX    TMP DP  RH WIND       PRES   REMARKS
CAPE GIRARDEAU CLOUDY    52  50  93 NW5       30.02R
FARMINGTON     CLOUDY    45  45 100 CALM      30.05S
POPLAR BLUFF   MOCLDY    48  44  86 NW6       30.01R
WEST PLAINS    CLEAR     51  41  68 NW13G21   30.06R

$$



USA.gov is the U.S. government's official web portal to all federal, state and local government web resources and services.